Change the Weather History Date:

Thursday, October 25, 2012

  Actual Average (KPLN) Record (KPLN)
Temperature  
Mean Temperature 68 °F -  
Max Temperature 79 °F 52 °F 81 °F (2012)
Min Temperature 57 °F 34 °F 19 °F (1952)
Cooling Degree Days 4    
Growing Degree Days 18 (Base 50)    
Moisture  
Dew Point 57 °F    
Average Humidity 71    
Maximum Humidity 97    
Minimum Humidity 38    
Precipitation  
Precipitation 0.00 in - - ()
Sea Level Pressure  
Sea Level Pressure 29.70 in    
Wind  
Wind Speed 8 mph (South)    
Max Wind Speed 21 mph    
Max Gust Speed 29 mph    
Visibility 9 miles    
Events Rain    
Averages and records for this station are not official NWS values.
T = Trace of Precipitation, MM = Missing Value Source: NWS Daily Summary

Daily Weather History Graph

Daily Weather History Graph

Search for Another Location

Airport or City:

Trip Planner

Search our weather history database for the weather conditions in past years. The results will help you decide how hot, cold, wet, or windy it might be!

Date:

Astronomy

Oct. 25, 2012 Rise Set
Actual Time 8:08 AM EDT 6:34 PM EDT
Civil Twilight 7:38 AM EDT 7:05 PM EDT
Nautical Twilight 7:03 AM EDT 7:39 PM EDT
Astronomical Twilight 6:29 AM EDT 8:14 PM EDT
Moon 4:29 PM EDT (10/25) 3:53 AM EDT (10/25)
Length of Visible Light 11h 26m
Length of Day
10h 25m
Waxing Gibbous, 84% of the Moon is Illuminated
Oct 25
Waxing Gibbous
Oct 29
Full
Nov 6
Last Quarter
Nov 13
New
Nov 20
First Quarter

Hourly Weather History & Observations

Time (EDT) Temp. Dew Point Humidity Pressure Visibility Wind Dir Wind Speed Gust Speed Precip Events Conditions
12:15 AM 59.0 °F 58.1 °F 97% 29.87 in 5.0 mi SE 3.5 mph - N/A   Scattered Clouds
12:35 AM 59.0 °F 58.1 °F 97% 29.86 in 5.0 mi SE 4.6 mph - N/A   Scattered Clouds
12:55 AM 59.4 °F 58.5 °F 97% 29.86 in 5.0 mi SSE 5.8 mph - N/A   Clear
1:35 AM 60.1 °F 59.0 °F 96% 29.85 in 5.0 mi SSE 5.8 mph - N/A   Mostly Cloudy
1:55 AM 60.3 °F 59.0 °F 96% 29.84 in 5.0 mi SSE 6.9 mph - N/A   Mostly Cloudy
2:15 AM 60.6 °F 59.2 °F 95% 29.84 in 5.0 mi SSE 5.8 mph - N/A   Mostly Cloudy
2:35 AM 60.3 °F 59.0 °F 96% 29.83 in 5.0 mi SSE 6.9 mph - N/A   Scattered Clouds
2:55 AM 60.4 °F 59.0 °F 95% 29.83 in 7.0 mi SSE 6.9 mph - N/A   Clear
3:35 AM 59.9 °F 58.5 °F 95% 29.82 in 5.0 mi SSE 5.8 mph - N/A   Clear
3:55 AM 59.4 °F 58.1 °F 96% 29.82 in 5.0 mi SSE 3.5 mph - N/A   Clear
4:15 AM 59.0 °F 57.9 °F 96% 29.81 in 5.0 mi SSE 4.6 mph - N/A   Clear
4:35 AM 58.1 °F 57.0 °F 96% 29.79 in 4.0 mi SE 4.6 mph - N/A   Clear
4:55 AM 58.3 °F 57.4 °F 97% 29.78 in 5.0 mi SE 4.6 mph - N/A   Clear
5:15 AM 59.2 °F 58.3 °F 97% 29.77 in 7.0 mi SSE 5.8 mph - N/A   Clear
5:35 AM 61.3 °F 59.4 °F 93% 29.77 in 10.0 mi SSE 6.9 mph - N/A   Clear
5:55 AM 61.9 °F 59.5 °F 92% 29.77 in 10.0 mi SSE 8.1 mph - N/A   Clear
6:15 AM 62.2 °F 59.9 °F 92% 29.76 in 10.0 mi SSE 8.1 mph - N/A   Clear
6:35 AM 62.8 °F 59.9 °F 90% 29.76 in 10.0 mi SSE 6.9 mph - N/A   Clear
6:55 AM 63.0 °F 60.1 °F 90% 29.77 in 10.0 mi South 4.6 mph - N/A   Clear
7:15 AM 62.8 °F 59.9 °F 90% 29.76 in 10.0 mi SSE 5.8 mph - N/A   Clear
7:55 AM 63.0 °F 59.9 °F 90% 29.76 in 10.0 mi SSE 5.8 mph - N/A   Clear
8:15 AM 62.8 °F 59.9 °F 90% 29.76 in 10.0 mi SSE 5.8 mph - N/A   Clear
8:35 AM 63.3 °F 60.3 °F 90% 29.75 in 10.0 mi SSE 6.9 mph - N/A   Clear
8:55 AM 64.4 °F 60.8 °F 88% 29.75 in 10.0 mi SSE 8.1 mph - N/A   Clear
9:35 AM 65.5 °F 60.6 °F 84% 29.74 in 10.0 mi SSE 8.1 mph - N/A   Clear
9:55 AM 66.2 °F 60.4 °F 82% 29.75 in 10.0 mi South 9.2 mph - N/A   Clear
10:15 AM 67.6 °F 60.6 °F 78% 29.74 in 10.0 mi South 9.2 mph 17.3 mph N/A   Clear
10:35 AM 68.0 °F 60.3 °F 76% 29.73 in 10.0 mi South 10.4 mph 17.3 mph N/A   Clear
10:55 AM 69.6 °F 60.1 °F 72% 29.72 in 10.0 mi South 9.2 mph 18.4 mph N/A   Clear
11:15 AM 69.3 °F 59.9 °F 72% 29.70 in 10.0 mi South 11.5 mph 18.4 mph N/A   Clear
11:35 AM 70.3 °F 60.1 °F 70% 29.70 in 10.0 mi South 11.5 mph 17.3 mph N/A   Clear
11:55 AM 71.8 °F 59.9 °F 66% 29.70 in 10.0 mi SSE 12.7 mph 21.9 mph N/A   Clear
12:15 PM 72.5 °F 60.1 °F 65% 29.68 in 10.0 mi South 9.2 mph 24.2 mph N/A   Clear
12:35 PM 74.1 °F 59.9 °F 61% 29.69 in 10.0 mi South 10.4 mph 19.6 mph N/A   Clear
12:55 PM 74.8 °F 59.9 °F 60% 29.68 in 10.0 mi SSE 11.5 mph 17.3 mph N/A   Clear
1:15 PM 75.9 °F 59.9 °F 57% 29.66 in 10.0 mi SSE 10.4 mph - N/A   Clear
1:35 PM 75.6 °F 57.9 °F 54% 29.65 in 10.0 mi South 12.7 mph 20.7 mph N/A   Clear
1:55 PM 77.4 °F 57.0 °F 49% 29.64 in 10.0 mi South 13.8 mph 21.9 mph N/A   Clear
2:15 PM 78.3 °F 56.1 °F 46% 29.64 in 10.0 mi South 10.4 mph 20.7 mph N/A   Clear
2:35 PM 78.3 °F 56.3 °F 47% 29.63 in 10.0 mi South 6.9 mph 18.4 mph N/A   Clear
2:54 PM 78.8 °F 55.4 °F 44% 29.63 in 10.0 mi South 9.2 mph 25.3 mph N/A   Clear
3:15 PM 78.8 °F 55.4 °F 44% 29.62 in 10.0 mi SSE 8.1 mph - N/A   Clear
3:35 PM 79.7 °F 54.5 °F 42% 29.61 in 10.0 mi South 11.5 mph 19.6 mph N/A   Clear
3:55 PM 79.0 °F 54.7 °F 43% 29.61 in 10.0 mi South 11.5 mph 17.3 mph N/A   Clear
4:15 PM 79.0 °F 54.7 °F 43% 29.62 in 10.0 mi South 8.1 mph - N/A   Clear
4:34 PM 79.9 °F 52.0 °F 38% 29.61 in 10.0 mi SSW 16.1 mph 23.0 mph N/A   Clear
4:55 PM 78.8 °F 52.7 °F 40% 29.60 in 10.0 mi South 11.5 mph 21.9 mph N/A   Clear
5:15 PM 78.3 °F 52.9 °F 41% 29.60 in 10.0 mi South 11.5 mph 17.3 mph N/A   Clear
5:35 PM 77.9 °F 52.9 °F 42% 29.60 in 10.0 mi South 11.5 mph 18.4 mph N/A   Clear
5:55 PM 77.0 °F 53.1 °F 43% 29.60 in 10.0 mi South 9.2 mph 18.4 mph N/A   Clear
6:14 PM 76.1 °F 53.6 °F 45% 29.60 in 10.0 mi South 8.1 mph - N/A   Scattered Clouds
6:35 PM 74.8 °F 53.8 °F 48% 29.61 in 10.0 mi South 9.2 mph - N/A   Scattered Clouds
6:55 PM 74.5 °F 54.7 °F 50% 29.61 in 10.0 mi South 6.9 mph - N/A   Mostly Cloudy
7:15 PM 73.6 °F 54.7 °F 51% 29.61 in 10.0 mi SSE 9.2 mph 16.1 mph N/A   Overcast
7:35 PM 73.0 °F 54.5 °F 52% 29.61 in 10.0 mi South 9.2 mph - N/A   Scattered Clouds
7:55 PM 73.6 °F 54.3 °F 51% 29.61 in 10.0 mi South 8.1 mph 17.3 mph N/A   Mostly Cloudy
8:35 PM 72.1 °F 54.5 °F 54% 29.61 in 10.0 mi South 8.1 mph 16.1 mph N/A   Scattered Clouds
8:55 PM 72.7 °F 54.7 °F 53% 29.60 in 10.0 mi South 10.4 mph 18.4 mph N/A   Overcast
9:15 PM 72.5 °F 55.4 °F 55% 29.60 in 10.0 mi South 15.0 mph 21.9 mph N/A   Mostly Cloudy
9:35 PM 72.7 °F 55.8 °F 55% 29.59 in 10.0 mi South 8.1 mph 20.7 mph N/A   Overcast
9:55 PM 72.5 °F 55.6 °F 55% 29.58 in 10.0 mi South 15.0 mph 20.7 mph N/A   Overcast
10:15 PM 68.2 °F 60.4 °F 76% 29.63 in 10.0 mi WSW 13.8 mph 19.6 mph N/A Rain Light Rain
10:35 PM 63.9 °F 57.9 °F 81% 29.64 in 10.0 mi WSW 16.1 mph 26.5 mph N/A   Overcast
10:55 PM 63.3 °F 56.8 °F 79% 29.64 in 10.0 mi WSW 16.1 mph 24.2 mph N/A Rain Light Rain
11:35 PM 59.9 °F 55.6 °F 86% 29.66 in 10.0 mi WSW 12.7 mph 20.7 mph N/A Rain Light Rain
11:55 PM 57.4 °F 54.0 °F 88% 29.69 in 7.0 mi West 20.7 mph 28.8 mph N/A Rain Light Rain